Location: Lane
(33.5226°N, 79.8788°W)
Time: 09:49:35
(UTC+00:00)

Altair - Pass Details

Date: 03 October 2022
Orbit: 1501 x 1682 km, 47.2° (Epoch: 30 November)

Event Time Altitude Azimuth Distance (km) Brightness Sun altitude
Rises 08:18:30 0° 207° (SSW) 4,689 - -36.9°
Reaches altitude 10° 08:21:39 10° 202° (SSW) 3,731 - -36.3°
Exits shadow 08:27:49 38° 170° (S) 2,236 8.1 -35.1°
Maximum altitude 08:30:33 47° 132° (SE) 2,026 8.1 -34.6°
Drops below altitude 10° 08:39:47 10° 63° (ENE) 3,878 10.4 -32.8°
Sets 08:43:07 0° 57° (ENE) 4,889 11.2 -32.1°
